Location: Cheching
(60.0667°N, 164.2167°W)
Time: 11:44:48
(UTC+00:00)

FENGYUN 1C DEB - Pass Details

Date: 03 October 2021
Orbit: 727 x 819 km, 99.4° (Epoch: 17 October)

Event Time Altitude Azimuth Distance (km) Brightness Sun altitude
Rises 06:26:37 0° 25° (NNE) 3,228 ? -15.9°
Reaches altitude 10° 06:31:15 10° 346° (NNW) 2,326 ? -16.4°
Maximum altitude 06:32:00 10° 338° (NNW) 2,309 ? -16.5°
Drops below altitude 10° 06:32:45 10° 329° (NNW) 2,335 ? -16.6°
Sets 06:37:28 0° 290° (WNW) 3,289 ? -17.1°
